This demonstration page uses our WeatherBlox Daily Observations layout. Learn more.

Left ArrowRight Arrow

39.51506, -84.39828

Hourly Observations for October 25, 2018

Temp ( °F °C ) Dew Point ( °F °C ) Humidity (%) Winds ( mph kmh ) Pressure ( in mb ) Visibility ( mi km ) Precip ( " mm )
12:15 am 00:15 Clear 35 1.4 32 0.1 91 91 Calm 30.36 1028 10 16.0934 0 0
12:35 am 00:35 Clear 33 0.8 31 -0.3 92 92 Calm 30.36 1028 10 16.0934 0 0
12:55 am 00:55 Clear 34 1.1 32 0 92 92 NNE 3 6 30.33 1027 10 16.0934 0 0
1:15 am 01:15 Clear 33 0.7 32 -0.2 94 94 Calm 30.33 1027 10 16.0934 0 0
1:35 am 01:35 Clear 34 1.1 33 0.3 94 94 Calm 30.33 1027 10 16.0934 0 0
1:55 am 01:55 Clear 34 1.2 33 0.4 94 94 Calm 30.33 1027 10 16.0934 0 0
2:15 am 02:15 Clear 34 1.2 33 0.5 95 95 Calm 30.33 1027 10 16.0934 0 0
2:35 am 02:35 Clear 34 1.1 33 0.3 94 94 Calm 30.33 1027 10 16.0934 0 0
2:55 am 02:55 Clear 34 0.9 31 -0.6 90 90 N 3 6 30.33 1027 10 16.0934 0 0
3:15 am 03:15 Clear 33 0.8 32 -0.2 93 93 Calm 30.33 1027 10 16.0934 0 0
3:35 am 03:35 Clear 33 0.8 31 -0.4 92 92 Calm 30.33 1027 10 16.0934 0 0
3:55 am 03:55 Clear 33 0.7 31 -0.6 91 91 Calm 30.3 1026 10 16.0934 0 0
4:15 am 04:15 Clear 32 -0.1 30 -0.9 94 94 Calm 30.3 1026 10 16.0934 0 0
4:35 am 04:35 Clear 32 0 30 -1 93 93 N 3 6 30.3 1026 10 16.0934 0 0
4:55 am 04:55 Clear 33 0.5 31 -0.7 92 92 Calm 30.3 1026 10 16.0934 0 0
5:15 am 05:15 Clear 33 0.5 31 -0.4 94 94 Calm 30.3 1026 10 16.0934 0 0
5:35 am 05:35 Clear 33 0.6 31 -0.7 91 91 Calm 30.3 1026 10 16.0934 0 0
5:55 am 05:55 Clear 33 0.5 31 -0.8 91 91 Calm 30.3 1026 10 16.0934 0 0
6:15 am 06:15 Clear 33 0.4 31 -0.6 93 93 N 3 6 30.3 1026 10 16.0934 0 0
6:35 am 06:35 Clear 33 0.6 31 -0.3 94 94 Calm 30.27 1025 10 16.0934 0 0
6:55 am 06:55 Clear 33 0.7 32 0.1 96 96 Calm 30.27 1025 10 16.0934 0 0
7:15 am 07:15 Clear 34 1.2 32 -0.2 91 91 N 3 6 30.27 1025 10 16.0934 0 0
7:35 am 07:35 Clear 35 1.4 32 -0.1 90 90 Calm 30.3 1026 10 16.0934 0 0
7:55 am 07:55 Clear 33 0.7 31 -0.3 93 93 Calm 30.27 1025 10 16.0934 0 0
8:15 am 08:15 Sunny 34 0.9 32 -0.1 93 93 N 3 6 30.27 1025 10 16.0934 0 0
8:35 am 08:35 Sunny 34 1.1 32 0 92 92 Calm 30.27 1025 10 16.0934 0 0
8:55 am 08:55 Sunny 35 1.5 33 0.4 92 92 Calm 30.27 1025 10 16.0934 0 0
9:15 am 09:15 Sunny 36 2.2 34 1.3 94 94 Calm 30.27 1025 10 16.0934 0 0
9:35 am 09:35 Sunny 38 3.6 35 1.8 88 88 Calm 30.27 1025 10 16.0934 0 0
9:55 am 09:55 Sunny 40 4.3 35 1.9 85 85 Calm 30.27 1025 10 16.0934 0 0
10:15 am 10:15 Sunny 41 4.8 36 2.1 83 83 Calm 30.27 1025 10 16.0934 0 0
10:35 am 10:35 Sunny 42 5.5 37 2.5 81 81 Calm 30.27 1025 10 16.0934 0 0
10:55 am 10:55 Sunny 43 6 37 2.7 80 80 Calm 30.24 1024 10 16.0934 0 0
11:15 am 11:15 Sunny 45 7.1 37 2.9 75 75 Calm 30.24 1024 10 16.0934 0 0
11:35 am 11:35 Sunny 46 7.5 36 2 68 68 Calm 30.24 1024 10 16.0934 0 0
11:55 am 11:55 Sunny 47 8.5 36 2 64 64 Calm 30.21 1023 10 16.0934 0 0
12:15 pm 12:15 Sunny 49 9.4 36 2.3 62 62 E 7 11 30.21 1023 10 16.0934 0 0
12:35 pm 12:35 Sunny 50 10 36 2.2 59 59 ESE 6 9 30.21 1023 10 16.0934 0 0
12:55 pm 12:55 Sunny 51 10.3 35 1.8 56 56 E 8 13 30.18 1022 10 16.0934 0 0
1:15 pm 13:15 Sunny 51 10.5 35 1.8 55 55 SE 7 11 30.18 1022 10 16.0934 0 0
1:35 pm 13:35 Sunny 52 11.2 35 1.9 53 53 ESE 8 13 30.15 1021 10 16.0934 0 0
1:55 pm 13:55 Sunny 54 12 36 2.3 52 52 SE 5 7 30.15 1021 10 16.0934 0 0
2:15 pm 14:15 Sunny 54 12.1 35 1.7 49 49 S 3 6 30.15 1021 10 16.0934 0 0
2:35 pm 14:35 Sunny 54 12 35 1.4 49 49 SSE 7 11 30.15 1021 10 16.0934 0 0
2:55 pm 14:55 Sunny 55 12.6 34 1.3 46 46 E 9 15 30.12 1020 10 16.0934 0 0
3:15 pm 15:15 Sunny 55 13 35 1.7 46 46 E 7 11 30.12 1020 10 16.0934 0 0
3:35 pm 15:35 Sunny 55 12.8 35 1.4 46 46 ESE 3 6 30.12 1020 10 16.0934 0 0
3:55 pm 15:55 Sunny 55 12.9 35 1.4 46 46 E 5 7 30.09 1019 10 16.0934 0 0
4:15 pm 16:15 Sunny 55 12.7 35 1.5 47 47 ENE 7 11 30.09 1019 10 16.0934 0 0
4:35 pm 16:35 Sunny 55 12.9 34 1.1 45 45 E 6 9 30.09 1019 10 16.0934 0 0
4:55 pm 16:55 Sunny 55 12.5 35 1.7 48 48 E 6 9 30.06 1018 10 16.0934 0 0
5:15 pm 17:15 Sunny 55 12.9 36 2.2 48 48 ENE 6 9 30.06 1018 10 16.0934 0 0
5:35 pm 17:35 Sunny 54 12 36 2.1 51 51 E 6 9 30.06 1018 10 16.0934 0 0
5:55 pm 17:55 Sunny 53 11.9 36 2.4 52 52 E 6 9 30.06 1018 10 16.0934 0 0
6:15 pm 18:15 Sunny 52 11.3 37 2.6 55 55 ENE 6 9 30.06 1018 10 16.0934 0 0
6:35 pm 18:35 Sunny 52 11 36 2.4 56 56 E 3 6 30.06 1018 10 16.0934 0 0
6:55 pm 18:55 Clear 51 10.7 35 1.9 55 55 E 5 7 30.06 1018 10 16.0934 0 0
7:15 pm 19:15 Clear 51 10.4 36 2.1 57 57 Calm 30.06 1018 10 16.0934 0 0
7:35 pm 19:35 Clear 49 9.5 38 3.1 65 65 ENE 5 7 30.06 1018 10 16.0934 0 0
7:55 pm 19:55 Clear 49 9.7 37 2.5 61 61 ENE 5 7 30.06 1018 10 16.0934 0 0
8:15 pm 20:15 Clear 49 9.2 37 2.7 64 64 NE 3 6 30.06 1018 10 16.0934 0 0
8:35 pm 20:35 Clear 49 9.2 37 2.9 65 65 ENE 6 9 30.06 1018 10 16.0934 0 0
8:55 pm 20:55 Clear 49 9.2 37 2.6 64 64 ENE 6 9 30.06 1018 10 16.0934 0 0
9:15 pm 21:15 Clear 48 9 37 2.6 65 65 ENE 7 11 30.03 1017 10 16.0934 0 0
9:35 pm 21:35 Clear 48 9 36 2.4 64 64 ENE 8 13 30.03 1017 10 16.0934 0 0
9:55 pm 21:55 Clear 48 9 36 2.4 64 64 ENE 8 13 30.03 1017 10 16.0934 0 0
10:15 pm 22:15 Clear 48 8.8 36 2.3 64 64 ENE 6 9 30.03 1017 10 16.0934 0 0
10:35 pm 22:35 Clear 47 8.4 37 2.5 67 67 ENE 6 9 30.03 1017 10 16.0934 0 0
10:55 pm 22:55 Clear 47 8.1 36 2.4 68 68 E 6 9 30.03 1017 10 16.0934 0 0
11:15 pm 23:15 Clear 46 7.9 37 2.8 70 70 ENE 5 7 30.03 1017 10 16.0934 0 0
11:35 pm 23:35 Clear 46 7.8 37 2.8 71 71 ENE 3 6 30.03 1017 10 16.0934 0 0
11:55 pm 23:55 Mostly Cloudy 46 7.7 37 2.8 71 71 ENE 3 6 30.03 1017 10 16.0934 0 0

Powered by AerisWeather